Change the Weather History Date:

Monday, January 13, 2014

  Actual Average (KTVC) Record (KTVC)
Temperature  
Mean Temperature 37 °F 22 °F  
Max Temperature 40 °F 28 °F 49 °F (2006)
Min Temperature 34 °F 15 °F -14 °F (2015)
Degree Days  
Heating Degree Days 28 44  
Month to date heating degree days 557  
Since 1 July heating degree days 3365  
Moisture  
Dew Point 32 °F    
Average Humidity 82    
Maximum Humidity 91    
Minimum Humidity 66    
Precipitation  
Precipitation 0.00 in 0.10 in 0.55 in (1979)
Month to date precipitation 1.26  
Year to date precipitation 1.26  
Sea Level Pressure  
Sea Level Pressure 29.52 in    
Wind  
Wind Speed 11 mph (SW)    
Max Wind Speed 17 mph    
Max Gust Speed 30 mph    
Visibility 10 miles    
Events Rain    
T = Trace of Precipitation, MM = Missing Value Source: NWS Daily Summary

Daily Weather History Graph

Daily Weather History Graph

Search for Another Location

Airport or City:

Trip Planner

Search our weather history database for the weather conditions in past years. The results will help you decide how hot, cold, wet, or windy it might be!

Date:

Astronomy

Jan. 13, 2014 Rise Set
Actual Time 8:19 AM EST 5:28 PM EST
Civil Twilight 7:46 AM EST 6:00 PM EST
Nautical Twilight 7:10 AM EST 6:37 PM EST
Astronomical Twilight 6:35 AM EST 7:12 PM EST
Moon 3:43 PM EST (1/13) 6:06 AM EST (1/13)
Length of Visible Light 10h 14m
Length of Day
9h 09m
Waxing Gibbous, 95% of the Moon is Illuminated
Jan 13
Waxing Gibbous
Jan 15
Full
Jan 24
Last Quarter
Jan 30
New
Feb 6
First Quarter

Hourly Weather History & Observations

Time (EST) Temp. Windchill Dew Point Humidity Pressure Visibility Wind Dir Wind Speed Gust Speed Precip Events Conditions
12:13 AM 39.7 °F 31.2 °F 32.5 °F 75% 29.55 in 10.0 mi SSW 16.1 mph 29.9 mph N/A   Overcast
12:33 AM 39.9 °F 31.1 °F 32.7 °F 75% 29.54 in 10.0 mi SSW 17.3 mph 26.5 mph N/A   Overcast
12:54 AM 40.1 °F 31.6 °F 32.9 °F 75% 29.53 in 10.0 mi SSW 16.1 mph 28.8 mph N/A   Overcast
1:14 AM 39.6 °F 31.0 °F 32.9 °F 77% 29.53 in 10.0 mi SSW 16.1 mph 27.6 mph N/A   Overcast
1:34 AM 39.4 °F 30.4 °F 33.1 °F 78% 29.53 in 10.0 mi SSW 17.3 mph 28.8 mph N/A   Scattered Clouds
1:54 AM 39.4 °F 31.8 °F 33.3 °F 79% 29.52 in 10.0 mi SSW 12.7 mph 21.9 mph N/A   Clear
2:14 AM 39.2 °F 31.6 °F 33.3 °F 79% 29.52 in 10.0 mi South 12.7 mph 26.5 mph N/A   Clear
2:34 AM 38.8 °F 31.2 °F 33.3 °F 80% 29.51 in 10.0 mi SSW 12.7 mph 20.7 mph N/A   Scattered Clouds
2:54 AM 39.0 °F 31.4 °F 33.4 °F 80% 29.51 in 10.0 mi SSW 12.7 mph 19.6 mph N/A   Mostly Cloudy
3:14 AM 38.8 °F 31.2 °F 33.6 °F 82% 29.50 in 10.0 mi South 12.7 mph 25.3 mph N/A   Overcast
3:35 AM 39.0 °F 31.0 °F 33.8 °F 82% 29.50 in 10.0 mi SSW 13.8 mph 21.9 mph N/A   Overcast
3:55 AM 39.0 °F 32.8 °F 33.8 °F 82% 29.50 in 10.0 mi SSW 9.2 mph 21.9 mph N/A   Overcast
4:15 AM 39.2 °F 31.6 °F 33.8 °F 81% 29.50 in 10.0 mi SSW 12.7 mph 20.7 mph N/A   Overcast
4:35 AM 38.8 °F 31.6 °F 33.8 °F 82% 29.50 in 10.0 mi SSW 11.5 mph 20.7 mph N/A   Overcast
4:55 AM 38.7 °F 32.4 °F 34.0 °F 83% 29.50 in 10.0 mi SSW 9.2 mph 17.3 mph N/A   Overcast
5:15 AM 38.3 °F 31.4 °F 34.0 °F 84% 29.50 in 10.0 mi SSW 10.4 mph 18.4 mph N/A   Overcast
5:35 AM 38.3 °F 31.9 °F 34.0 °F 84% 29.49 in 10.0 mi SSW 9.2 mph 16.1 mph N/A   Overcast
5:55 AM 38.1 °F 33.7 °F 34.2 °F 86% 29.48 in 10.0 mi SSW 5.8 mph - N/A   Overcast
6:15 AM 38.3 °F 32.5 °F 34.7 °F 87% 29.48 in 10.0 mi SSW 8.1 mph - N/A   Overcast
6:36 AM 38.3 °F 33.9 °F 34.9 °F 87% 29.47 in 10.0 mi South 5.8 mph - N/A   Overcast
6:56 AM 38.3 °F 34.8 °F 34.9 °F 87% 29.47 in 10.0 mi SSW 4.6 mph - N/A   Overcast
7:16 AM 38.1 °F 31.7 °F 34.7 °F 87% 29.47 in 10.0 mi SSW 9.2 mph - N/A   Overcast
7:36 AM 37.9 °F 31.5 °F 34.3 °F 87% 29.47 in 10.0 mi South 9.2 mph - N/A   Overcast
7:56 AM 38.3 °F 32.5 °F 34.3 °F 86% 29.47 in 10.0 mi SSW 8.1 mph - N/A   Overcast
8:16 AM 38.1 °F 32.9 °F 34.5 °F 87% 29.47 in 10.0 mi SW 6.9 mph - N/A   Overcast
8:36 AM 38.3 °F 33.2 °F 34.7 °F 87% 29.48 in 10.0 mi SSW 6.9 mph - N/A   Overcast
8:56 AM 37.9 °F 32.1 °F 34.7 °F 88% 29.48 in 10.0 mi SSW 8.1 mph - N/A   Overcast
9:11 AM 37.8 °F 33.3 °F 34.7 °F 89% 29.49 in 10.0 mi SW 5.8 mph - N/A   Light Drizzle
9:31 AM 37.8 °F 34.2 °F 34.9 °F 89% 29.48 in 10.0 mi SW 4.6 mph - N/A Rain Light Rain
9:51 AM 37.4 °F 32.8 °F 34.9 °F 91% 29.47 in 7.0 mi South 5.8 mph - N/A   Overcast
10:12 AM 37.4 °F 33.8 °F 35.1 °F 91% 29.47 in 10.0 mi South 4.6 mph - N/A   Light Drizzle
10:32 AM 37.6 °F 34.0 °F 34.9 °F 90% 29.46 in 10.0 mi SSE 4.6 mph - N/A   Overcast
10:52 AM 38.3 °F 34.8 °F 35.1 °F 88% 29.47 in 10.0 mi South 4.6 mph - N/A   Overcast
11:12 AM 38.3 °F 32.5 °F 34.7 °F 87% 29.49 in 10.0 mi SW 8.1 mph - N/A Rain Light Rain
11:32 AM 38.3 °F 31.9 °F 34.7 °F 87% 29.49 in 10.0 mi SSW 9.2 mph 16.1 mph N/A   Light Drizzle
11:52 AM 38.1 °F 31.7 °F 34.7 °F 87% 29.49 in 10.0 mi SSW 9.2 mph - N/A Rain Light Rain
12:12 PM 38.1 °F 31.7 °F 34.7 °F 87% 29.48 in 10.0 mi SW 9.2 mph - N/A   Overcast
12:33 PM 38.3 °F 31.4 °F 34.7 °F 87% 29.47 in 10.0 mi SSW 10.4 mph - N/A   Mostly Cloudy
12:53 PM 38.1 °F 33.7 °F 34.3 °F 86% 29.45 in 10.0 mi SSW 5.8 mph - N/A   Mostly Cloudy
1:13 PM 38.3 °F 32.5 °F 34.5 °F 86% 29.45 in 10.0 mi SSW 8.1 mph - N/A   Overcast
1:33 PM 38.3 °F 33.2 °F 34.7 °F 87% 29.45 in 10.0 mi SW 6.9 mph - N/A   Mostly Cloudy
1:53 PM 38.5 °F 32.7 °F 34.9 °F 87% 29.45 in 10.0 mi SSW 8.1 mph - N/A   Scattered Clouds
2:13 PM 38.3 °F 33.9 °F 35.1 °F 88% 29.46 in 10.0 mi SW 5.8 mph - N/A   Scattered Clouds
2:33 PM 37.8 °F 32.5 °F 35.1 °F 90% 29.46 in 10.0 mi SW 6.9 mph - N/A   Mostly Cloudy
2:53 PM 38.3 °F 33.2 °F 35.4 °F 89% 29.47 in 10.0 mi SW 6.9 mph - N/A   Mostly Cloudy
3:13 PM 37.6 °F 31.6 °F 35.1 °F 91% 29.47 in 10.0 mi SW 8.1 mph - N/A   Mostly Cloudy
3:33 PM 37.4 °F 32.8 °F 34.7 °F 90% 29.48 in 10.0 mi SW 5.8 mph - N/A   Mostly Cloudy
3:53 PM 37.4 °F 31.4 °F 34.7 °F 90% 29.50 in 10.0 mi WSW 8.1 mph - N/A   Overcast
4:13 PM 37.6 °F 32.3 °F 33.4 °F 85% 29.51 in 10.0 mi WSW 6.9 mph - N/A   Overcast
4:34 PM 37.6 °F 33.1 °F 33.1 °F 84% 29.51 in 10.0 mi West 5.8 mph - N/A   Overcast
4:54 PM 37.6 °F 32.3 °F 33.1 °F 84% 29.52 in 10.0 mi West 6.9 mph - N/A   Overcast
5:14 PM 37.4 °F 32.1 °F 32.9 °F 84% 29.53 in 10.0 mi WNW 6.9 mph - N/A   Overcast
5:34 PM 36.5 °F 30.3 °F 32.2 °F 84% 29.54 in 10.0 mi West 8.1 mph - N/A   Overcast
5:54 PM 36.1 °F 27.7 °F 32.2 °F 86% 29.54 in 10.0 mi NW 12.7 mph 19.6 mph N/A   Overcast
6:14 PM 35.6 °F 26.6 °F 31.1 °F 84% 29.55 in 10.0 mi NW 13.8 mph - N/A   Overcast
6:34 PM 35.6 °F 27.5 °F 31.1 °F 84% 29.56 in 10.0 mi NW 11.5 mph - N/A   Overcast
6:54 PM 35.4 °F 28.4 °F 31.1 °F 84% 29.57 in 10.0 mi WNW 9.2 mph - N/A   Overcast
7:15 PM 35.1 °F 27.9 °F 30.7 °F 84% 29.58 in 10.0 mi WNW 9.2 mph - N/A   Overcast
7:35 PM 35.2 °F 27.6 °F 29.5 °F 80% 29.59 in 10.0 mi WNW 10.4 mph 16.1 mph N/A   Overcast
7:55 PM 35.1 °F 26.9 °F 27.3 °F 73% 29.59 in 10.0 mi WNW 11.5 mph - N/A   Overcast
8:15 PM 35.1 °F 27.9 °F 27.1 °F 73% 29.60 in 10.0 mi NW 9.2 mph - N/A   Overcast
8:35 PM 35.1 °F 26.9 °F 26.2 °F 70% 29.60 in 10.0 mi WNW 11.5 mph 17.3 mph N/A   Overcast
8:55 PM 35.1 °F 27.9 °F 26.4 °F 71% 29.60 in 10.0 mi WNW 9.2 mph - N/A   Overcast
9:15 PM 35.1 °F 27.9 °F 25.3 °F 68% 29.61 in 10.0 mi WNW 9.2 mph - N/A   Overcast
9:35 PM 34.9 °F 29.9 °F 25.2 °F 68% 29.60 in 10.0 mi NW 5.8 mph - N/A   Overcast
9:55 PM 34.9 °F 29.9 °F 24.6 °F 66% 29.61 in 10.0 mi West 5.8 mph - N/A   Overcast
10:15 PM 34.7 °F 28.8 °F 25.7 °F 70% 29.61 in 10.0 mi WNW 6.9 mph - N/A   Overcast
10:36 PM 34.9 °F 27.1 °F 24.4 °F 66% 29.62 in 10.0 mi WNW 10.4 mph - N/A   Overcast
10:56 PM 34.7 °F 27.5 °F 25.5 °F 69% 29.62 in 10.0 mi West 9.2 mph - N/A   Overcast
11:16 PM 34.7 °F 29.6 °F 24.8 °F 67% 29.63 in 10.0 mi West 5.8 mph - N/A   Overcast
11:36 PM 34.2 °F 25.7 °F 25.5 °F 71% 29.63 in 10.0 mi WNW 11.5 mph - N/A   Overcast
11:56 PM 34.0 °F 26.0 °F 25.3 °F 71% 29.63 in 10.0 mi West 10.4 mph - N/A   Overcast